IGO906E VOHS-VOVZ

Flight info

Callsign IGO906E
Flight time 0h 48m
Altitude 33000
Route VIRKO7 AKSAN
Aircraft A20N/M-SDE2E3FGHIRWXY/LB1

Departure

Time 2026-04-20 20:01
Airport Rajiv Gandhi International Airport (VOHS)

Arrival

Time 2026-04-20 20:49
Airport Visakhapatnam International Airport (VOVZ)
Time Latitude Longitude Altitude Speed Heading
2026-04-20 19:33 17.23588 78.43407 2011 ft 0 kts 179°
2026-04-20 19:49 17.23589 78.43407 2011 ft 0 kts 179°
2026-04-20 19:49 17.23603 78.43407 2011 ft 2 kts 179°
2026-04-20 19:49 17.23618 78.43407 2010 ft 2 kts 179°
2026-04-20 19:50 17.23633 78.43406 2009 ft 2 kts 179°
2026-04-20 19:50 17.23647 78.43406 2009 ft 2 kts 179°
2026-04-20 19:50 17.23661 78.43404 2008 ft 2 kts 151°
2026-04-20 19:50 17.23672 78.43394 2008 ft 2 kts 124°
2026-04-20 19:51 17.23677 78.43380 2007 ft 2 kts 93°
2026-04-20 19:51 17.23676 78.43364 2007 ft 2 kts 89°
2026-04-20 19:51 17.23676 78.43360 2007 ft 0 kts 91°
2026-04-20 19:53 17.23676 78.43362 2007 ft 1 kts 91°
2026-04-20 19:53 17.23676 78.43385 2007 ft 6 kts 89°
2026-04-20 19:54 17.23677 78.43469 2009 ft 15 kts 89°
2026-04-20 19:54 17.23679 78.43601 2014 ft 17 kts 88°
2026-04-20 19:54 17.23673 78.43684 2018 ft 8 kts 131°
2026-04-20 19:54 17.23625 78.43694 2019 ft 7 kts 181°
2026-04-20 19:55 17.23558 78.43693 2022 ft 11 kts 180°
2026-04-20 19:55 17.23467 78.43692 2025 ft 14 kts 180°
2026-04-20 19:55 17.23373 78.43691 2027 ft 9 kts 185°
2026-04-20 19:55 17.23329 78.43644 2025 ft 11 kts 270°
2026-04-20 19:56 17.23336 78.43581 2023 ft 17 kts 274°
2026-04-20 19:56 17.23336 78.43368 2017 ft 25 kts 269°
2026-04-20 19:56 17.23332 78.43180 2016 ft 25 kts 269°
2026-04-20 19:56 17.23327 78.42986 2009 ft 27 kts 268°
2026-04-20 19:57 17.23327 78.42806 2002 ft 13 kts 269°
2026-04-20 19:57 17.23302 78.42733 1999 ft 12 kts 207°
2026-04-20 19:57 17.23210 78.42731 1998 ft 13 kts 176°
2026-04-20 19:57 17.23109 78.42726 1996 ft 15 kts 209°
2026-04-20 19:58 17.23079 78.42612 1991 ft 19 kts 270°
2026-04-20 19:58 17.23078 78.42447 1985 ft 25 kts 268°
2026-04-20 19:58 17.23072 78.42240 1977 ft 30 kts 269°
2026-04-20 19:58 17.23068 78.41999 1967 ft 35 kts 271°
2026-04-20 19:59 17.23066 78.41737 1965 ft 36 kts 268°
2026-04-20 19:59 17.23062 78.41481 1968 ft 31 kts 269°
2026-04-20 19:59 17.23044 78.41350 1971 ft 11 kts 226°
2026-04-20 19:59 17.22980 78.41335 1974 ft 8 kts 179°
2026-04-20 20:00 17.22922 78.41336 1975 ft 8 kts 179°
2026-04-20 20:00 17.22860 78.41363 1977 ft 12 kts 110°
2026-04-20 20:00 17.22858 78.41499 1976 ft 37 kts 90°
2026-04-20 20:00 17.22865 78.42040 1971 ft 106 kts 88°
2026-04-20 20:01 17.22881 78.43018 2009 ft 158 kts 90°
2026-04-20 20:01 17.22888 78.44288 2348 ft 174 kts 91°
2026-04-20 20:01 17.22893 78.45524 3085 ft 169 kts 90°
2026-04-20 20:01 17.22899 78.46751 3789 ft 172 kts 89°
2026-04-20 20:02 17.22921 78.48071 4254 ft 187 kts 89°
2026-04-20 20:02 17.22951 78.49513 4712 ft 205 kts 89°
2026-04-20 20:02 17.22980 78.51097 5159 ft 224 kts 89°
2026-04-20 20:02 17.23018 78.52838 5572 ft 248 kts 87°
2026-04-20 20:03 17.23178 78.54700 6121 ft 267 kts 82°
2026-04-20 20:03 17.23506 78.56687 6875 ft 277 kts 79°
2026-04-20 20:03 17.23873 78.58670 7804 ft 280 kts 78°
2026-04-20 20:03 17.24252 78.60694 8725 ft 284 kts 78°
2026-04-20 20:04 17.24637 78.62761 9631 ft 288 kts 78°
2026-04-20 20:04 17.25023 78.64836 10468 ft 294 kts 78°
2026-04-20 20:04 17.25402 78.66876 10955 ft 310 kts 78°
2026-04-20 20:04 17.25828 78.69177 11404 ft 329 kts 78°
2026-04-20 20:05 17.26276 78.71604 11822 ft 347 kts 78°
2026-04-20 20:05 17.26755 78.74200 12195 ft 366 kts 78°
2026-04-20 20:05 17.27251 78.76891 12518 ft 384 kts 78°
2026-04-20 20:05 17.27768 78.79703 12812 ft 401 kts 78°
2026-04-20 20:06 17.28308 78.82639 13241 ft 412 kts 78°
2026-04-20 20:06 17.28859 78.85644 13924 ft 416 kts 78°
2026-04-20 20:06 17.29408 78.88638 14614 ft 420 kts 78°
2026-04-20 20:06 17.29969 78.91700 15270 ft 423 kts 78°
2026-04-20 20:07 17.30532 78.94780 15907 ft 427 kts 78°
2026-04-20 20:07 17.31100 78.97882 16522 ft 431 kts 78°
2026-04-20 20:07 17.31663 79.00962 17130 ft 434 kts 78°
2026-04-20 20:07 17.32233 79.04085 17737 ft 436 kts 79°
2026-04-20 20:08 17.32814 79.07269 18331 ft 439 kts 79°
2026-04-20 20:08 17.33396 79.10455 18897 ft 442 kts 79°
2026-04-20 20:08 17.33978 79.13651 19441 ft 445 kts 79°
2026-04-20 20:08 17.34564 79.16867 19965 ft 447 kts 79°
2026-04-20 20:09 17.35148 79.20084 20464 ft 450 kts 79°
2026-04-20 20:09 17.35739 79.23338 20943 ft 453 kts 79°
2026-04-20 20:09 17.36342 79.26668 21410 ft 457 kts 79°
2026-04-20 20:09 17.36937 79.29958 21851 ft 460 kts 79°
2026-04-20 20:10 17.37540 79.33289 22278 ft 463 kts 79°
2026-04-20 20:10 17.38147 79.36649 22683 ft 466 kts 79°
2026-04-20 20:10 17.38753 79.40007 23065 ft 468 kts 79°
2026-04-20 20:10 17.39361 79.43372 23438 ft 471 kts 79°
2026-04-20 20:11 17.39976 79.46783 23927 ft 470 kts 79°
2026-04-20 20:11 17.40585 79.50162 24456 ft 468 kts 79°
2026-04-20 20:11 17.41194 79.53548 24960 ft 467 kts 79°
2026-04-20 20:11 17.41802 79.56924 25440 ft 466 kts 79°
2026-04-20 20:12 17.42405 79.60286 25909 ft 465 kts 79°
2026-04-20 20:12 17.43009 79.63650 26371 ft 465 kts 79°
2026-04-20 20:12 17.43610 79.67001 26825 ft 464 kts 79°
2026-04-20 20:13 17.44802 79.73663 27720 ft 463 kts 79°
2026-04-20 20:13 17.45402 79.77016 28169 ft 462 kts 79°
2026-04-20 20:13 17.45995 79.80337 28605 ft 461 kts 79°
2026-04-20 20:13 17.46590 79.83672 29040 ft 460 kts 79°
2026-04-20 20:14 17.47186 79.87019 29472 ft 460 kts 79°
2026-04-20 20:14 17.47770 79.90295 29887 ft 459 kts 79°
2026-04-20 20:14 17.48358 79.93599 30309 ft 458 kts 79°
2026-04-20 20:14 17.48951 79.96935 30732 ft 457 kts 79°
2026-04-20 20:15 17.49537 80.00240 31136 ft 457 kts 79°
2026-04-20 20:15 17.50089 80.03551 31482 ft 457 kts 81°
2026-04-20 20:15 17.50485 80.06866 31770 ft 459 kts 84°
2026-04-20 20:15 17.50710 80.10242 32043 ft 460 kts 88°
2026-04-20 20:16 17.50785 80.13598 32310 ft 461 kts 89°
2026-04-20 20:16 17.50830 80.16982 32569 ft 462 kts 89°
2026-04-20 20:16 17.50868 80.20421 32808 ft 464 kts 89°
2026-04-20 20:16 17.50907 80.23796 32880 ft 466 kts 89°
2026-04-20 20:17 17.50989 80.30668 32896 ft 466 kts 89°
2026-04-20 20:17 17.51073 80.37540 32905 ft 466 kts 89°
2026-04-20 20:18 17.51155 80.44331 32909 ft 466 kts 89°
2026-04-20 20:18 17.51236 80.51139 32911 ft 466 kts 89°
2026-04-20 20:19 17.51314 80.57953 32912 ft 466 kts 89°
2026-04-20 20:19 17.51390 80.64778 32912 ft 466 kts 89°
2026-04-20 20:20 17.51464 80.71563 32910 ft 466 kts 89°
2026-04-20 20:20 17.51535 80.78390 32898 ft 466 kts 89°
2026-04-20 20:21 17.51604 80.85188 32881 ft 466 kts 89°
2026-04-20 20:21 17.51671 80.92043 32861 ft 466 kts 89°
2026-04-20 20:22 17.51735 80.98853 32847 ft 466 kts 89°
2026-04-20 20:22 17.51796 81.05605 32839 ft 466 kts 89°
2026-04-20 20:23 17.51855 81.12366 32835 ft 466 kts 89°
2026-04-20 20:23 17.51913 81.19109 32833 ft 466 kts 89°
2026-04-20 20:24 17.51969 81.25902 32833 ft 466 kts 89°
2026-04-20 20:24 17.52023 81.32728 32832 ft 466 kts 89°
2026-04-20 20:25 17.52073 81.39508 32832 ft 466 kts 89°
2026-04-20 20:25 17.52121 81.46313 32832 ft 466 kts 89°
2026-04-20 20:26 17.52167 81.53091 32832 ft 466 kts 89°
2026-04-20 20:26 17.52211 81.59849 32828 ft 467 kts 89°
2026-04-20 20:27 17.52232 81.63242 32486 ft 467 kts 89°
2026-04-20 20:27 17.52251 81.66517 31878 ft 465 kts 89°
2026-04-20 20:27 17.52270 81.69782 31145 ft 464 kts 89°
2026-04-20 20:27 17.52289 81.73176 30326 ft 464 kts 89°
2026-04-20 20:28 17.52301 81.75421 29766 ft 464 kts 89°
2026-04-20 20:28 17.52325 81.79900 28601 ft 465 kts 89°
2026-04-20 20:28 17.52343 81.83315 27682 ft 466 kts 89°
2026-04-20 20:28 17.52360 81.86663 26761 ft 467 kts 89°
2026-04-20 20:29 17.52377 81.90070 25819 ft 467 kts 89°
2026-04-20 20:29 17.52393 81.93472 24863 ft 468 kts 89°
2026-04-20 20:29 17.52409 81.96838 23889 ft 469 kts 89°
2026-04-20 20:29 17.52424 82.00260 22835 ft 470 kts 89°
2026-04-20 20:30 17.52439 82.03656 21997 ft 465 kts 89°
2026-04-20 20:30 17.52453 82.07047 21292 ft 459 kts 89°
2026-04-20 20:30 17.52465 82.10371 20614 ft 452 kts 89°
2026-04-20 20:30 17.52478 82.13706 19954 ft 445 kts 89°
2026-04-20 20:31 17.52543 82.16770 19341 ft 439 kts 86°
2026-04-20 20:31 17.52764 82.19981 18679 ft 436 kts 84°
2026-04-20 20:31 17.53139 82.23158 17903 ft 433 kts 82°
2026-04-20 20:31 17.53567 82.26301 17191 ft 427 kts 81°
2026-04-20 20:32 17.53996 82.29398 16552 ft 421 kts 81°
2026-04-20 20:32 17.54419 82.32452 15942 ft 419 kts 81°
2026-04-20 20:32 17.54837 82.35491 15298 ft 414 kts 82°
2026-04-20 20:32 17.55248 82.38483 14641 ft 410 kts 82°
2026-04-20 20:33 17.55651 82.41432 13976 ft 405 kts 82°
2026-04-20 20:33 17.56053 82.44379 13302 ft 400 kts 82°
2026-04-20 20:33 17.56445 82.47263 12702 ft 393 kts 82°
2026-04-20 20:33 17.56826 82.50069 12224 ft 383 kts 82°
2026-04-20 20:34 17.57203 82.52846 11795 ft 372 kts 82°
2026-04-20 20:34 17.57563 82.55500 11498 ft 359 kts 82°
2026-04-20 20:34 17.57911 82.58073 11231 ft 347 kts 82°
2026-04-20 20:34 17.58250 82.60574 10970 ft 335 kts 82°
2026-04-20 20:35 17.58574 82.62975 10728 ft 324 kts 82°
2026-04-20 20:35 17.58889 82.65310 10511 ft 312 kts 83°
2026-04-20 20:35 17.59192 82.67562 10318 ft 301 kts 83°
2026-04-20 20:35 17.59480 82.69698 10151 ft 290 kts 83°
2026-04-20 20:36 17.59763 82.71802 10000 ft 279 kts 83°
2026-04-20 20:36 17.60032 82.73801 9870 ft 270 kts 83°
2026-04-20 20:36 17.60295 82.75765 9577 ft 269 kts 83°
2026-04-20 20:36 17.60560 82.77738 9226 ft 269 kts 83°
2026-04-20 20:37 17.60822 82.79694 8888 ft 268 kts 83°
2026-04-20 20:37 17.61086 82.81664 8552 ft 267 kts 83°
2026-04-20 20:37 17.61346 82.83606 8222 ft 266 kts 83°
2026-04-20 20:37 17.61607 82.85551 7893 ft 265 kts 83°
2026-04-20 20:38 17.61864 82.87472 7569 ft 264 kts 84°
2026-04-20 20:38 17.62120 82.89393 7245 ft 263 kts 84°
2026-04-20 20:38 17.62378 82.91322 6921 ft 261 kts 84°
2026-04-20 20:38 17.62632 82.93224 6602 ft 260 kts 84°
2026-04-20 20:39 17.62886 82.95132 6280 ft 260 kts 84°
2026-04-20 20:39 17.63140 82.97041 5958 ft 259 kts 84°
2026-04-20 20:39 17.63391 82.98929 5640 ft 258 kts 84°
2026-04-20 20:39 17.63643 83.00823 5321 ft 257 kts 84°
2026-04-20 20:40 17.63893 83.02702 5005 ft 257 kts 84°
2026-04-20 20:40 17.64140 83.04563 4692 ft 256 kts 84°
2026-04-20 20:40 17.64392 83.06461 4374 ft 255 kts 84°
2026-04-20 20:40 17.64639 83.08327 4061 ft 255 kts 84°
2026-04-20 20:41 17.64886 83.10188 3750 ft 254 kts 83°
2026-04-20 20:41 17.65131 83.12036 3439 ft 253 kts 83°
2026-04-20 20:41 17.65377 83.13897 3126 ft 253 kts 83°
2026-04-20 20:41 17.65621 83.15736 2817 ft 252 kts 83°
2026-04-20 20:42 17.65866 83.17593 2568 ft 248 kts 83°
2026-04-20 20:42 17.66102 83.19372 2487 ft 236 kts 83°
2026-04-20 20:42 17.66323 83.21040 2408 ft 224 kts 83°
2026-04-20 20:42 17.66538 83.22664 2333 ft 219 kts 83°
2026-04-20 20:43 17.66771 83.24304 2260 ft 226 kts 83°
2026-04-20 20:43 17.67012 83.25919 2198 ft 214 kts 82°
2026-04-20 20:43 17.67244 83.27434 2181 ft 199 kts 82°
2026-04-20 20:43 17.67408 83.28864 2178 ft 190 kts 91°
2026-04-20 20:44 17.67384 83.30269 2190 ft 190 kts 94°
2026-04-20 20:44 17.67309 83.31679 2193 ft 190 kts 95°
2026-04-20 20:44 17.67225 83.33083 2194 ft 190 kts 95°
2026-04-20 20:44 17.67138 83.34498 2193 ft 188 kts 95°
2026-04-20 20:45 17.67059 83.35820 2171 ft 173 kts 95°
2026-04-20 20:45 17.67016 83.37087 2174 ft 170 kts 83°
2026-04-20 20:45 17.67539 83.38203 2174 ft 174 kts 39°
2026-04-20 20:45 17.68643 83.38716 2200 ft 175 kts
2026-04-20 20:46 17.69821 83.38390 2199 ft 173 kts 320°
2026-04-20 20:46 17.70692 83.37509 2214 ft 173 kts 303°
2026-04-20 20:46 17.71185 83.36362 2157 ft 171 kts 280°
2026-04-20 20:46 17.71376 83.35116 2023 ft 169 kts 274°
2026-04-20 20:47 17.71474 83.33868 1766 ft 168 kts 272°
2026-04-20 20:47 17.71558 83.32646 1520 ft 166 kts 272°
2026-04-20 20:47 17.71648 83.31476 1312 ft 150 kts 272°
2026-04-20 20:47 17.71737 83.30407 1072 ft 137 kts 272°
2026-04-20 20:48 17.71820 83.29405 892 ft 135 kts 272°
2026-04-20 20:48 17.71900 83.28413 726 ft 135 kts 272°
2026-04-20 20:48 17.71982 83.27413 552 ft 135 kts 272°
2026-04-20 20:48 17.72063 83.26420 356 ft 134 kts 272°
2026-04-20 20:49 17.72144 83.25440 146 ft 134 kts 272°
2026-04-20 20:49 17.72230 83.24453 34 ft 128 kts 274°
2026-04-20 20:49 17.72285 83.23689 29 ft 81 kts 274°
2026-04-20 20:49 17.72321 83.23262 21 ft 45 kts 277°
2026-04-20 20:50 17.72348 83.22946 20 ft 41 kts 275°
2026-04-20 20:50 17.72370 83.22659 25 ft 35 kts 273°
2026-04-20 20:50 17.72381 83.22501 28 ft 9 kts 275°
2026-04-20 20:50 17.72421 83.22458 30 ft 9 kts 353°
2026-04-20 20:51 17.72499 83.22464 30 ft 12 kts
2026-04-20 20:51 17.72570 83.22469 31 ft 7 kts 351°
2026-04-20 20:51 17.72600 83.22446 32 ft 3 kts 299°
2026-04-20 20:51 17.72611 83.22428 32 ft 2 kts 310°
2026-04-20 20:52 17.72624 83.22419 32 ft 2 kts 345°
2026-04-20 20:52 17.72642 83.22419 33 ft 3 kts
2026-04-20 20:52 17.72669 83.22421 33 ft 2 kts
2026-04-20 20:52 17.72687 83.22423 33 ft 0 kts
2026-04-20 20:53 17.72689 83.22423 33 ft 0 kts
2026-04-20 20:53 17.72695 83.22424 33 ft 0 kts